Simultaneous Nadir Overpasses (SNOs) Predictions

Prediction of SNOs between GOES-16 and LANDSAT-8 Satellite Orbit:

Table of predicted SNOs for the next 14.0 days since TLE Epoch: 11/30/2024
Index Date Time (GOES-16) GOES-16 Lat,Lon LANDSAT-8 Lat,Lon Distance(km) Time Diff (sec)
1 11/30/2024 15:00:36 -0.03, -75.21 -0.63, -72.48 310.61 80
2 12/01/2024 03:24:40 0.03, -75.19 -0.47, -77.67 282.29 80
3 12/03/2024 03:09:47 0.02, -75.19 0.12, -74.71 54.74 80
4 12/05/2024 02:57:34 0.01, -75.19 0.76, -71.74 392.41 80
5 12/05/2024 15:18:49 -0.01, -75.22 0.34, -76.90 190.73 80
6 12/07/2024 15:09:15 -0.01, -75.23 -0.29, -73.93 148.04 80
7 12/08/2024 03:30:38 0.01, -75.21 -0.84, -79.11 444.10 80
8 12/09/2024 14:57:00 -0.00, -75.25 -0.89, -70.95 487.72 80
9 12/10/2024 03:18:24 0.00, -75.23 -0.16, -76.15 104.25 80
10 12/12/2024 03:03:28 -0.00, -75.25 0.43, -73.17 236.39 80
11 12/12/2024 15:24:43 0.00, -75.28 0.64, -78.33 346.18 80
